Simultaneous Nadir Overpasses (SNOs) Predictions

Prediction of SNOs between FY3D and AQUA Satellite Orbit:

Table of predicted SNOs for the next 14.0 days since TLE Epoch: 12/14/2024
Index Date (FY3D) Time (FY3D) Lat,Lon (FY3D) SZA (FY3D ) Date (AQUA) Time (AQUA) Lat,Lon (AQUA) SZA (AQUA ) Distance(km) Time Diff (sec)
1 12/14/2024 12:45:09 -80.29, 144.40 75.78 12/14/2024 12:46:23 -80.42, 144.70 75.70 15.51 74
2 12/14/2024 13:35:24 79.43, -39.05 102.92 12/14/2024 13:35:14 79.44, -39.17 102.94 2.58 10
3 12/16/2024 23:57:10 -79.52, -15.22 76.84 12/16/2024 23:57:29 -79.53, -15.30 76.84 1.74 19
4 12/17/2024 00:47:49 79.30, 153.98 102.87 12/17/2024 00:46:43 79.30, 153.96 102.88 0.60 66
5 12/19/2024 10:18:56 79.56, 9.05 103.29 12/19/2024 10:19:42 79.57, 8.93 103.29 2.50 46
6 12/19/2024 11:09:34 -79.37, 178.06 76.98 12/19/2024 11:08:56 -79.37, 178.00 76.97 1.46 38
7 12/21/2024 20:40:43 -79.69, 32.51 76.52 12/21/2024 20:41:55 -79.68, 32.58 76.54 1.58 72
8 12/21/2024 21:31:23 79.51,-158.55 103.24 12/21/2024 21:31:10 79.50,-158.41 103.23 2.86 13
9 12/24/2024 07:53:06 -79.52,-134.00 76.77 12/24/2024 07:53:19 -79.53,-134.06 76.77 1.35 13
10 12/24/2024 08:43:45 79.31, 35.15 102.94 12/24/2024 08:42:33 79.31, 35.16 102.95 0.20 72
11 12/26/2024 18:14:53 79.61,-110.23 103.30 12/26/2024 18:15:29 79.61,-110.19 103.29 0.82 36



Historial Predications of SNOs between FY3D and AQUA
